Probability
45 32 42 55 39 35 39 42 42 32 32 26 16 19 16 26 23 19 23 29 32 39 39 23 29 23 23 19 26 35 32 32 29 26 13 13 16 16 13 16 13 16 13
45 39 39 52 35 35 35 39 35 45 35 32 29 29 26 23 23 29 26 29 32 39 35 29 23 19 23 23 23 26 35 32 35 32 19 23 19 23 16 16 13 19 23
45 39 39 55 45 48 42 45 42 42 45 35 32 32 29 32 26 23 26 35 32 32 42 32 29 23 23 23 19 23 29 39 29 26 23 23 23 23 19 13 19 23 19
48 52 48 48 52 45 52 52 48 45 42 42 39 35 39 35 32 26 19 26 42 32 32 29 29 23 23 19 23 26 29 32 29 26 19 19 19 16 13 13 13 23 23
42 42 48 58 52 52 42 39 45 42 39 39 29 35 32 35 35 26 23 23 26 39 35 32 35 26 29 26 23 29 16 23 23 32 19 16 10 10 13 10 13 10 10
39 39 42 48 45 48 55 58 55 52 45 42 29 32 32 26 26 32 19 16 29 26 26 19 32 32 16 26 35 29 19 26 16 19 19 16 13 13 10 6 3 3 3
35 35 39 45 45 55 55 42 45 48 42 45 35 35 29 26 29 29 35 29 23 16 19 26 29 32 23 13 10 23 19 16 19 19 13 13 13 13 10 10 3 3 3
39 32 39 35 48 61 61 58 58 55 42 45 35 35 26 23 48 10 26 32 23 26 26 13 35 35 29 35 23 13 13 16 13 23 16 16 13 10 10 6 6 3 0
39 39 42 45 52 42 52 58 61 61 45 45 42 42 35 23 23 13 26 23 29 29 23 23 26 32 29 32 35 10 10 6 6 13 16 16 19 13 6 6 6 0 0
39 39 45 48 55 52 58 55 52 52 55 52 45 61 48 42 39 19 16 19 32 35 32 16 23 26 29 29 19 13 0 0 0 6 10 13 10 10 6 10 6 10 10
42 35 42 45 52 52 58 58 61 65 55 48 48 52 48 58 45 39 26 29 19 23 26 23 29 32 32 32 26 16 10 0 0 0 6 6 6 10 10 10 10 10 13
42 42 39 52 52 52 55 61 61 58 68 65 58 48 45 48 48 39 29 35 23 23 23 29 29 29 32 29 16 6 3 0 0 0 3 6 6 6 3 6 6 13 13
42 48 42 48 52 52 55 55 58 58 58 58 65 55 48 52 55 48 45 35 29 29 29 32 35 29 23 23 26 3 6 3 0 0 0 0 6 6 6 6 6 6 6
42 45 48 52 52 52 48 55 52 52 52 52 48 55 58 55 52 42 39 39 32 29 29 29 29 26 26 23 13 3 10 6 0 0 0 0 0 3 3 3 3 3 3
42 48 42 39 48 42 35 42 42 48 52 45 42 48 48 52 52 45 39 48 32 32 32 32 39 32 29 29 6 13 23 3 3 0 0 0 0 0 0 0 0 3 3
48 45 45 42 42 45 39 45 39 45 45 48 55 55 52 39 45 48 39 45 48 48 35 39 39 32 29 16 6 16 13 3 0 0 0 0 0 0 0 0 0 0 0
55 45 39 42 45 42 42 39 42 42 42 39 42 45 48 52 45 48 42 45 45 48 42 35 29 35 35 26 13 13 16 13 0 0 0 0 0 0 0 0 0 0 0
58 42 42 42 35 35 35 35 32 32 35 32 29 39 42 42 45 45 45 45 42 42 35 39 32 35 35 32 23 16 6 3 3 0 0 0 0 0 0 0 0 0 0
45 39 42 39 32 35 45 39 35 29 32 29 29 39 42 42 42 42 45 32 35 26 35 39 35 26 32 19 16 13 10 16 0 0 0 0 0 0 0 0 0 0 0
52 45 42 42 45 35 42 42 42 39 35 32 29 39 39 39 35 32 32 39 35 35 39 42 32 23 26 16 13 13 13 16 10 0 3 0 0 0 0 0 0 0 0
48 48 48 42 35 35 32 35 39 35 35 35 39 42 39 29 26 26 19 32 32 32 32 39 39 32 23 19 13 10 10 13 13 6 6 3 3 3 3 0 0 0 0
52 42 42 35 35 32 13 10 16 35 32 32 39 42 32 29 16 13 10 10 16 32 32 39 39 29 29 16 16 13 10 10 10 10 6 6 3 3 0 0 0 0 0
48 39 39 35 35 26 19 3 6 23 35 35 32 32 29 26 19 26 16 3 0 0 3 23 26 26 23 26 19 16 16 16 23 13 6 3 6 3 0 0 0 0 0
45 42 42 35 32 26 16 3 3 16 26 26 26 26 26 26 23 23 23 23 23 23 16 19 23 19 19 19 16 16 13 13 16 19 3 3 3 3 0 0 0 0 0
45 35 35 32 29 23 16 3 3 19 19 19 23 26 23 23 16 10 16 23 23 23 10 3 6 6 3 3 3 13 13 13 10 10 3 3 3 6 3 0 0 0 0
35 26 26 23 23 23 19 3 0 19 19 19 23 23 19 19 13 10 19 19 23 23 16 13 10 0 3 3 0 3 10 10 10 10 6 3 3 3 3 3 3 3 0
Height
5880 5880 5881 5881 5881 5882 5883 5883 5883 5884 5884 5884 5884 5884 5885 5885 5885 5885 5885 5886 5886 5887 5887 5887 5887 5887 5887 5887 5887 5887 5888 5888 5888 5889 5889 5889 5890 5890 5890 5890 5891 5891 5891
5881 5882 5882 5882 5882 5883 5883 5883 5884 5884 5885 5885 5884 5884 5884 5884 5885 5885 5885 5885 5885 5886 5886 5886 5886 5885 5885 5885 5885 5886 5886 5886 5886 5887 5887 5887 5887 5888 5888 5888 5888 5889 5889
5882 5882 5883 5883 5883 5883 5884 5884 5884 5884 5884 5884 5884 5884 5884 5884 5884 5884 5884 5884 5884 5884 5885 5885 5885 5884 5884 5884 5884 5884 5884 5884 5884 5884 5885 5885 5885 5885 5885 5886 5886 5886 5886
5883 5883 5883 5883 5884 5884 5884 5884 5884 5884 5884 5884 5884 5884 5884 5884 5883 5883 5883 5883 5883 5883 5883 5883 5883 5883 5882 5882 5882 5882 5882 5882 5882 5882 5882 5882 5882 5882 5883 5883 5883 5883 5883
5885 5885 5884 5884 5884 5884 5884 5884 5885 5884 5884 5884 5883 5883 5883 5883 5882 5882 5882 5882 5882 5882 5881 5881 5881 5881 5880 5880 5880 5880 5880 5880 5880 5880 5880 5880 5879 5879 5880 5880 5880 5880 5880
5886 5886 5885 5885 5885 5885 5885 5885 5885 5884 5884 5883 5883 5883 5882 5882 5881 5881 5881 5880 5880 5880 5879 5879 5879 5879 5878 5878 5878 5878 5877 5877 5877 5877 5877 5877 5876 5876 5876 5876 5876 5876 5876
5887 5887 5886 5886 5885 5885 5885 5885 5885 5884 5884 5883 5883 5882 5882 5881 5881 5880 5879 5879 5878 5878 5878 5877 5877 5876 5876 5875 5875 5875 5875 5874 5874 5874 5873 5873 5873 5873 5873 5873 5873 5873 5873
5888 5887 5887 5886 5886 5886 5886 5885 5885 5884 5883 5883 5882 5882 5881 5881 5879 5879 5878 5877 5877 5876 5875 5875 5874 5873 5872 5872 5872 5872 5872 5872 5871 5871 5870 5870 5870 5869 5869 5869 5869 5868 5868
5889 5888 5888 5887 5887 5886 5886 5885 5885 5884 5883 5882 5881 5881 5880 5879 5878 5878 5877 5876 5875 5874 5873 5872 5871 5870 5870 5870 5869 5869 5869 5869 5868 5868 5867 5867 5867 5866 5866 5865 5864 5864 5863
5890 5889 5888 5888 5887 5887 5886 5885 5885 5884 5883 5882 5881 5880 5879 5878 5877 5876 5875 5874 5873 5872 5871 5869 5868 5868 5867 5867 5866 5866 5865 5865 5865 5864 5864 5863 5863 5862 5861 5861 5860 5859 5858
5890 5890 5889 5888 5888 5887 5886 5886 5885 5884 5882 5881 5880 5879 5878 5877 5876 5875 5873 5872 5871 5870 5868 5867 5866 5865 5864 5864 5863 5862 5862 5861 5861 5861 5860 5859 5858 5858 5857 5856 5855 5854 5853
5891 5890 5889 5888 5888 5887 5886 5885 5884 5883 5882 5881 5880 5878 5877 5876 5874 5873 5871 5870 5869 5868 5866 5864 5863 5862 5861 5860 5859 5858 5857 5857 5857 5856 5856 5855 5854 5853 5852 5851 5850 5849 5848
5891 5890 5889 5888 5887 5886 5885 5884 5883 5882 5881 5880 5878 5877 5875 5874 5872 5871 5869 5868 5866 5865 5863 5862 5860 5859 5858 5857 5856 5854 5853 5853 5852 5852 5851 5850 5849 5848 5847 5846 5845 5844 5843
5891 5890 5889 5888 5887 5886 5885 5884 5882 5881 5880 5878 5877 5875 5873 5872 5870 5868 5867 5865 5864 5862 5861 5859 5857 5856 5855 5853 5852 5851 5850 5849 5848 5847 5846 5845 5844 5843 5842 5841 5840 5838 5837
5890 5889 5888 5887 5886 5885 5884 5882 5881 5880 5878 5877 5875 5873 5871 5869 5867 5866 5864 5862 5861 5859 5858 5856 5854 5853 5851 5850 5848 5847 5846 5844 5843 5843 5842 5840 5839 5838 5836 5835 5833 5832 5830
5890 5889 5888 5887 5886 5884 5883 5881 5880 5878 5876 5874 5872 5870 5868 5866 5865 5863 5861 5859 5858 5856 5854 5852 5851 5849 5847 5846 5844 5843 5841 5840 5839 5838 5836 5835 5834 5832 5830 5829 5827 5825 5824
5889 5888 5887 5886 5884 5883 5881 5879 5878 5876 5874 5872 5870 5868 5866 5864 5862 5860 5858 5856 5855 5853 5851 5849 5847 5845 5843 5842 5840 5838 5837 5835 5834 5833 5831 5830 5828 5826 5824 5822 5820 5819 5817
5888 5887 5885 5884 5883 5881 5879 5877 5875 5873 5871 5869 5867 5865 5863 5861 5859 5857 5855 5853 5851 5849 5847 5845 5843 5841 5839 5838 5836 5834 5832 5830 5829 5827 5825 5824 5822 5820 5818 5815 5813 5812 5810
5886 5885 5884 5882 5881 5879 5877 5875 5873 5871 5868 5866 5864 5862 5860 5858 5856 5854 5852 5850 5848 5845 5843 5841 5839 5837 5835 5833 5831 5829 5827 5825 5823 5821 5819 5818 5816 5813 5811 5809 5807 5805 5802
5884 5883 5881 5880 5878 5876 5874 5872 5870 5868 5865 5863 5861 5859 5857 5855 5853 5851 5848 5846 5844 5842 5839 5837 5835 5833 5830 5828 5826 5824 5821 5819 5817 5815 5813 5811 5809 5807 5805 5802 5800 5798 5795
5882 5880 5879 5877 5875 5873 5871 5869 5867 5864 5862 5860 5858 5856 5854 5851 5849 5847 5844 5842 5840 5838 5835 5833 5830 5828 5825 5823 5820 5818 5816 5814 5811 5809 5807 5805 5803 5800 5798 5795 5793 5790 5787
5879 5877 5876 5874 5872 5870 5868 5866 5864 5861 5859 5856 5854 5852 5850 5847 5845 5843 5840 5838 5836 5833 5831 5828 5826 5823 5820 5817 5815 5812 5810 5808 5806 5804 5800 5798 5796 5793 5791 5788 5785 5782 5779
5875 5874 5872 5870 5868 5866 5864 5862 5860 5857 5855 5852 5850 5848 5845 5843 5841 5838 5836 5833 5831 5828 5826 5823 5821 5818 5815 5812 5809 5807 5804 5802 5799 5797 5794 5791 5788 5786 5783 5779 5776 5773 5771
5871 5870 5868 5866 5864 5862 5860 5858 5855 5853 5850 5848 5846 5843 5841 5838 5836 5834 5831 5829 5826 5824 5821 5818 5815 5813 5810 5807 5804 5801 5798 5796 5793 5790 5787 5784 5781 5778 5774 5771 5768 5764 5761
5867 5865 5863 5862 5860 5858 5855 5853 5851 5848 5846 5843 5841 5839 5836 5834 5831 5828 5826 5823 5821 5818 5815 5812 5809 5807 5804 5801 5798 5795 5792 5789 5786 5784 5780 5777 5773 5770 5766 5763 5759 5756 5753
5861 5860 5858 5857 5855 5853 5851 5848 5846 5844 5841 5839 5836 5834 5831 5829 5826 5823 5821 5818 5815 5812 5810 5807 5804 5801 5798 5795 5792 5789 5785 5782 5779 5776 5773 5769 5765 5762 5758 5755 5751 5748 5744
Wind_Speed
7 6 5 5 5 6 6 5 5 5 4 3 3 4 4 4 4 4 4 5 7 7 7 7 7 8 8 8 8 8 8 8 7 8 9 9 10 10 9 9 10 9 9
5 5 5 5 5 5 4 4 4 4 4 3 2 3 3 4 4 4 4 5 7 7 8 8 9 8 9 9 9 10 10 9 9 9 10 9 10 10 10 10 10 10 11
6 5 5 5 4 3 3 3 3 3 3 2 2 3 3 3 4 4 5 5 6 7 8 9 10 9 10 10 10 10 11 11 10 9 10 11 11 11 12 12 12 12 12
6 5 5 3 3 2 2 2 2 1 1 2 2 2 3 3 4 5 5 5 6 6 8 9 10 10 11 11 11 11 12 12 11 11 11 12 12 12 12 13 13 14 14
6 6 5 3 2 1 1 1 2 2 3 3 3 3 3 3 4 5 5 6 7 7 8 9 10 10 10 10 10 11 12 12 12 12 12 12 12 12 13 13 14 15 15
5 6 5 4 3 2 1 0 1 2 3 2 2 2 3 4 4 5 6 7 8 8 8 9 10 11 12 12 11 11 12 12 12 12 12 13 13 13 13 14 15 15 15
5 6 5 4 3 1 0 1 2 2 2 2 2 3 4 4 5 6 6 7 7 8 9 9 11 11 12 13 12 12 13 13 12 12 13 13 14 14 15 15 16 16 17
4 4 4 3 2 1 1 1 2 2 2 2 2 3 4 4 5 6 7 6 7 8 9 9 11 12 13 13 13 14 14 14 14 14 13 14 14 15 16 17 17 17 18
5 5 4 3 3 2 2 2 3 3 3 3 4 4 5 6 6 7 7 7 7 8 9 10 11 12 12 12 13 14 15 15 15 15 14 14 15 15 16 17 17 18 18
4 4 4 4 4 3 3 3 4 4 4 4 4 5 6 7 7 8 8 8 9 10 11 12 12 12 13 13 14 15 15 15 15 15 16 16 16 17 17 18 18 18 19
4 4 4 4 4 4 4 4 4 5 6 6 6 6 7 7 8 9 9 10 10 11 12 13 13 14 14 15 14 14 14 14 15 16 16 17 18 19 19 19 20 20 20
4 4 4 4 4 5 5 6 6 7 7 7 7 7 8 9 10 10 11 12 12 13 13 14 14 13 14 14 15 15 16 16 16 17 18 18 19 19 20 20 21 21 21
5 5 5 5 5 6 6 7 8 8 8 9 9 9 10 10 11 11 12 13 13 14 14 14 14 13 14 14 14 15 16 16 17 18 19 19 19 20 21 21 22 22 23
5 6 6 5 6 7 7 8 9 9 10 10 11 11 11 11 12 12 13 13 13 14 14 14 14 14 14 15 15 16 17 18 18 19 19 20 20 21 22 22 23 23 24
6 6 7 7 7 8 8 9 10 10 11 12 12 12 12 12 12 13 13 14 14 15 15 15 15 15 16 16 16 17 18 18 18 19 20 20 21 22 23 24 24 25 25
7 8 8 8 8 9 9 9 10 12 12 13 13 13 13 14 14 14 14 14 15 15 16 16 16 17 17 16 17 18 19 20 20 20 21 22 23 24 25 25 25 26 26
8 8 8 9 10 10 10 11 11 13 13 14 14 14 14 14 14 15 16 15 15 16 16 17 18 18 18 17 18 19 20 20 21 21 22 23 24 25 26 26 26 26 26
8 9 10 10 11 11 12 12 13 13 14 14 14 14 14 14 14 15 15 16 16 16 17 17 18 19 19 19 19 19 20 20 21 22 23 23 24 25 26 26 27 27 28
10 10 11 11 12 13 13 13 14 14 15 15 15 15 15 15 16 16 16 17 17 17 17 18 18 19 19 20 20 20 21 22 22 23 23 24 24 25 26 26 27 28 29
11 11 12 12 13 14 14 14 15 15 16 16 16 16 17 17 17 17 17 17 17 17 18 18 18 19 20 21 22 22 22 22 22 23 23 24 25 25 26 26 27 28 29
13 13 13 13 14 15 15 15 15 17 17 17 17 18 18 18 18 18 18 18 18 18 18 18 19 20 21 21 21 22 22 23 23 23 24 25 26 26 26 27 28 29 29
14 14 15 15 15 16 16 17 17 18 18 18 18 18 19 19 19 19 18 18 18 18 19 20 20 20 21 21 22 22 23 23 23 24 26 26 27 28 28 29 30 30 31
16 16 17 17 17 17 18 19 19 19 19 18 19 19 20 20 20 20 19 19 20 20 21 21 21 21 21 22 22 22 23 23 24 25 26 27 28 29 29 30 31 31 31
17 17 18 18 18 19 20 20 20 20 20 19 19 20 20 20 21 21 20 21 22 22 22 22 22 22 22 23 23 23 24 24 26 27 27 28 29 30 30 31 31 31 32
19 19 19 19 19 20 20 20 20 20 20 20 20 20 21 21 22 22 22 22 22 23 23 23 23 23 23 24 24 25 25 25 26 27 28 29 29 30 30 31 31 32 32
21 21 21 20 20 20 20 21 21 21 21 21 21 22 22 22 23 23 23 23 23 24 24 24 24 24 25 26 26 27 27 27 27 28 29 30 31 30 30 31 31 31 32
Wind_Direction
121 121 128 142 156 162 172 176 168 174 179 171 171 171 178 201 206 220 220 220 224 229 230 231 231 231 232 232 233 235 236 242 245 247 245 246 246 247 247 249 246 250 251
124 130 140 142 151 163 178 189 187 185 191 189 171 181 206 221 235 239 231 230 231 235 239 241 244 241 236 240 241 243 243 250 253 254 255 253 252 251 254 254 253 251 253
122 134 136 139 147 160 175 184 207 226 218 219 217 213 230 250 260 247 245 247 243 246 249 251 252 254 251 250 249 249 249 250 253 257 260 259 255 254 255 258 256 256 257
110 121 131 138 147 163 180 194 216 238 247 242 230 230 250 273 277 263 262 259 254 255 257 258 257 259 257 253 254 254 255 254 257 261 264 262 258 256 256 257 257 258 258
106 101 106 117 132 147 176 223 265 270 268 262 250 260 281 294 286 284 279 267 262 264 265 261 259 260 260 262 263 263 261 259 258 259 261 260 259 259 258 257 258 258 260
91 87 84 83 84 74 86 335 307 293 272 271 278 276 296 308 305 299 286 276 271 273 271 265 263 267 269 271 268 265 266 264 264 261 261 261 262 261 260 257 257 259 261
85 79 74 71 62 45 80 348 349 324 314 302 305 311 312 309 305 300 293 286 281 280 279 274 273 273 272 272 268 265 266 266 266 267 267 265 264 261 261 261 261 260 261
79 72 55 43 18 347 337 326 330 323 331 334 326 315 314 311 304 306 303 293 288 283 277 275 272 271 269 269 269 268 267 269 268 269 270 270 269 267 265 265 266 265 264
61 54 46 42 40 29 17 11 8 350 347 344 329 319 315 311 312 311 305 299 292 288 288 283 277 271 273 274 273 272 271 272 272 271 272 275 274 271 269 270 270 271 269
52 45 40 38 34 31 21 10 358 346 337 340 333 325 320 312 307 306 306 304 300 297 295 283 277 273 274 276 274 273 274 275 274 273 274 274 276 276 271 272 272 273 271
40 39 41 37 23 13 5 351 345 348 344 337 328 323 316 309 306 305 304 302 301 301 298 293 286 282 280 279 280 279 276 276 277 275 275 276 276 277 276 275 276 277 275
15 13 16 12 2 357 349 343 337 333 334 332 327 322 316 311 305 302 303 302 301 304 303 299 293 291 287 286 282 280 277 275 276 276 276 278 279 278 278 278 278 280 279
2 353 350 343 341 339 334 331 331 327 328 327 325 321 318 316 313 310 308 306 304 304 304 302 297 293 290 288 285 282 280 279 279 280 278 279 281 280 278 279 280 281 282
345 345 345 337 329 331 327 324 325 326 325 324 323 321 319 318 314 314 312 309 307 307 306 301 298 295 291 290 288 286 285 283 281 282 284 283 283 282 279 280 281 282 283
338 339 339 338 333 330 327 326 326 326 325 322 319 315 313 314 314 314 313 311 310 309 308 304 302 301 297 294 292 291 290 289 285 283 284 284 284 285 283 283 283 282 281
330 333 333 333 331 329 327 326 325 324 321 319 318 316 314 312 311 311 312 312 310 308 306 304 301 300 299 298 296 293 290 288 286 285 285 285 285 286 287 286 285 285 283
328 327 327 326 324 321 320 319 320 320 319 317 315 314 314 313 312 312 312 311 310 306 304 303 302 301 300 298 299 296 294 292 289 289 289 289 288 289 288 287 285 284 284
322 323 323 322 322 322 320 318 317 317 317 317 314 313 315 316 316 315 314 311 310 309 306 304 303 303 300 299 299 299 298 296 295 293 291 290 291 291 290 290 288 286 285
316 317 318 319 322 323 322 320 318 316 314 313 314 315 316 316 315 314 312 311 309 307 307 307 307 306 303 302 300 299 299 296 295 294 294 293 294 294 294 292 290 288 287
310 312 313 316 320 321 319 318 316 314 313 312 313 313 315 314 315 314 313 313 310 307 307 308 307 305 303 301 299 298 297 296 295 295 295 294 295 295 294 293 292 291 289
304 307 309 312 313 315 314 314 313 312 312 312 311 310 311 312 314 313 312 313 311 309 308 308 306 304 303 302 299 298 297 296 296 296 296 296 295 295 295 295 294 292 291
301 302 303 306 308 310 311 311 312 312 312 311 310 310 310 310 311 311 309 310 310 309 308 308 307 306 305 304 301 298 297 297 297 296 295 296 295 295 294 295 294 292 291
298 300 300 301 303 305 307 307 308 309 309 310 310 310 310 310 310 309 309 309 308 307 307 307 307 306 304 304 303 301 299 299 298 297 296 295 295 296 297 296 296 293 292
298 300 301 302 302 304 306 307 306 306 307 306 306 306 307 308 308 307 306 305 305 306 307 306 304 304 304 304 304 303 301 299 299 299 298 298 298 298 298 297 296 294 293
295 297 298 300 302 304 304 306 307 306 305 306 305 304 305 306 307 306 305 305 305 305 306 306 304 303 303 302 302 303 302 301 300 299 299 299 299 299 298 298 297 295 294
292 294 296 297 299 301 303 304 305 305 305 304 303 303 303 304 305 305 305 305 304 304 305 305 305 303 303 302 301 302 302 301 300 299 300 301 301 300 299 298 297 296 295